Погода в Чусовом

Россия / Свердловская область     57°20′17″N   59°14′55″E
темп.,
°C
ветер,
м/с
пор.,
м/с
влажн.,
%
обл.,
%
осадки,
мм/ч
давл.,
гПа
погр.,
м
10 августа, ср
ср1023:00+17в11716 0.0 101911
02:00+15юв118273 0.0 101915
05:00+15юв2283100 0.0 101921
08:00+19юв2372100 0.0 1019117
11:00+24ююв2251100 0.0 1019696
14:00+26ююв2244100 0.0 10191404
17:00+26ююв234282 0.0 10181648
20:00+21юв2268100 0.0 101721
11 августа, чт
чт1123:00+17ю1189100 0.0 101811
02:00+16ююв228679 0.0 101744
05:00+14ююз22969 0.9 101750
08:00+17юз399480 0.0 1017372
11:00+21з476999 0.0 1017983
14:00+22з584682 0.2 10171416
17:00+20з684869 0.2 10171650
20:00+15зсз59747 0.0 1019935
12 августа, пт
пт1223:00+11з3109115 0.0 1019478
02:00+11зсз4129193 0.0 1019737
05:00+13зсз4127393 0.0 1019729
08:00+14зсз4117280 0.0 1019588
11:00+17зсз4961100 0.0 1019824
14:00+21з6840100 0.0 10182277
17:00+20зсз594590 0.0 10181965
20:00+18з410615 0.0 1017773
13 августа, сб
сб1323:00+13зюз211845 0.0 1017255
02:00+13з412825 0.0 1016385
05:00+12з412865 0.0 1016364
08:00+15з4118191 0.1 1016483
11:00+18зсз5107152 0.4 1015937
14:00+22сз61044100 0.4 10142382
17:00+20сз59493 0.4 10161922
20:00+16сз511540 0.0 1017725
14 августа, вс
вс1423:00+10зсз28780 0.0 1020160
02:00+8зсз22840 0.0 102118
05:00+7зсз21870 0.0 102212
08:00+12сз39650 0.0 1022440
11:00+16сз57465 0.0 10221308
14:00+19сз46390 0.0 10211718
17:00+19сз45411 0.0 10211821
20:00+14сз24677 0.0 102280